Regional Weather Roundup
Issued by NWS

Home | Current Version | Previous Version | Text Only | Print | Product List | Glossary Off
Versions: 1 2 3 4 5 6 7 8 9 10 11 12 13 14 15 16 17 18 19 20 21 22 23 24 25 26 27 28 29 30 31 32 33 34 35 36 37 38 39 40 41 42 43 44 45 46 47 48 49 50

000
ASUS43 KOAX 042102
RWRNE

WEATHER ROUNDUP FOR NEBRASKA
NATIONAL WEATHER SERVICE OMAHA NE
400 PM CDT MON MAY 04 2015

NOTES: SATELLITE DATA IS BEING USED TO AUGMENT CLOUD COVER ABOVE
       12000 FEET.
       "FAIR" INDICATES FEW OR NO CLOUDS BELOW 12,000 FEET WITH NO
       SIGNIFICANT WEATHER AND/OR OBSTRUCTIONS TO VISIBILITY.

  * THESE STATIONS DO NOT REPORT WEATHER SUCH AS RAIN...SNOW OR FOG.

NEZ001>004-019>022-054>056-042200-
NEBRASKA PANHANDLE

CITY           SKY/WX    TMP DP  RH WIND       PRES   REMARKS
SCOTTSBLUFF    CLOUDY    60  38  43 SE12      30.11F
ALLIANCE       CLOUDY    60  35  39 E14G23    30.12F
CHADRON        LGT RAIN  52  40  63 E12       30.15F
KIMBALL        CLOUDY    57  43  58 E14       30.09F
SIDNEY         PTSUNNY   60  40  47 SE12      30.12F
$$

NEZ057>060-069>072-079>082-042200-
SOUTHWEST NEBRASKA

CITY           SKY/WX    TMP DP  RH WIND       PRES   REMARKS
NORTH PLATTE   LGT RAIN  50  44  80 E14       30.14S
IMPERIAL       CLOUDY    51  46  83 NE15      30.13S
MCCOOK         CLOUDY    58  43  57 NE14      30.10F
$$

NEZ005>010-023>029-035>040-094-042200-
NORTH CENTRAL NEBRASKA

CITY           SKY/WX    TMP DP  RH WIND       PRES   REMARKS
VALENTINE      CLOUDY    65  23  20 NE16      30.14F
AINSWORTH      CLOUDY    69  26  19 E13G18    30.13S
BROKEN BOW     LGT RAIN  53  48  83 CALM      30.14R
ORD            LGT RAIN  59  42  53 E10       30.12R
$$

NEZ041-046>049-061>064-073>077-083>087-042200-
SOUTH CENTRAL NEBRASKA

CITY           SKY/WX    TMP DP  RH WIND       PRES   REMARKS
GRAND ISLAND   CLOUDY    54  51  90 NE9       30.11S
AURORA         CLOUDY    55  52  90 NE17      30.10S
HASTINGS       CLOUDY    56  51  84 NE17      30.08F
KEARNEY *      CLOUDY    54  46  76 NE15      30.11F
$$

NEZ011>018-030>034-042>045-042200-
NORTHEAST NEBRASKA

CITY           SKY/WX    TMP DP  RH WIND       PRES   REMARKS
NORFOLK        LGT RAIN  60  48  64 E10G18    30.13S
COLUMBUS *     CLOUDY    57  48  72 NE14      30.12F
TEKAMAH        LGT RAIN  61  55  81 N6        30.12R
$$

NEZ050>053-065>068-078-088>093-042200-
SOUTHEAST NEBRASKA

CITY           SKY/WX    TMP DP  RH WIND       PRES   REMARKS
LINCOLN        LGT RAIN  59  55  87 N14       30.08F FOG
OMAHA EPPLEY   CLOUDY    65  60  84 N8        30.08F
FALLS CITY     CLOUDY    70  62  76 NE10      30.00F
NEBRASKA CITY  CLOUDY    64  62  92 NE12      30.04F
PLATTSMOUTH    CLOUDY    64  58  81 NE7       30.06S
$$

NEZ044-045-051>053-067-042200-
OMAHA AREA

CITY           SKY/WX    TMP DP  RH WIND       PRES   REMARKS
OMAHA EPPLEY   CLOUDY    65  60  84 N8        30.08F
OFFUTT AFB     CLOUDY    66  60  81 N6        30.07S
PLATTSMOUTH    CLOUDY    64  58  81 NE7       30.06S
$$


USA.gov is the U.S. government's official web portal to all federal, state and local government web resources and services.